Year,Month,Day,Hour,Minute,Value (Times are PST for temperature in C)
2010,01,19,00,00,8.30
2010,01,19,00,01,8.30
2010,01,19,00,02,8.30
2010,01,19,00,03,8.30
2010,01,19,00,04,8.30
2010,01,19,00,05,8.30
2010,01,19,00,06,8.30
2010,01,19,00,07,8.30
2010,01,19,00,08,8.30
2010,01,19,00,09,8.20
2010,01,19,00,10,8.20
2010,01,19,00,11,8.20
2010,01,19,00,12,8.20
2010,01,19,00,13,8.20
2010,01,19,00,14,8.20
2010,01,19,00,15,8.20
2010,01,19,00,16,8.20
2010,01,19,00,17,8.20
2010,01,19,00,18,8.20
2010,01,19,00,19,8.20
2010,01,19,00,20,8.20
2010,01,19,00,21,8.20
2010,01,19,00,22,8.30
2010,01,19,00,23,8.30
2010,01,19,00,24,8.30
2010,01,19,00,25,8.30
2010,01,19,00,26,8.20
2010,01,19,00,27,8.20
2010,01,19,00,28,8.20
2010,01,19,00,29,8.20
2010,01,19,00,30,8.20
2010,01,19,00,31,8.20
2010,01,19,00,32,8.20
2010,01,19,00,33,8.20
2010,01,19,00,34,8.20
2010,01,19,00,35,8.20
2010,01,19,00,36,8.20
2010,01,19,00,37,8.20
2010,01,19,00,38,8.20
2010,01,19,00,39,8.20
2010,01,19,00,40,8.20
2010,01,19,00,41,8.20
2010,01,19,00,42,8.20
2010,01,19,00,43,8.20
2010,01,19,00,44,8.20
2010,01,19,00,45,8.20
2010,01,19,00,46,8.20
2010,01,19,00,47,8.20
2010,01,19,00,48,8.20
2010,01,19,00,49,8.20
2010,01,19,00,50,8.20
2010,01,19,00,51,8.20
2010,01,19,00,52,8.20
2010,01,19,00,53,8.20
2010,01,19,00,54,8.20
2010,01,19,00,55,8.20
2010,01,19,00,56,8.20
2010,01,19,00,57,8.20
2010,01,19,00,58,8.20
2010,01,19,00,59,8.20
2010,01,19,01,00,8.20
2010,01,19,01,01,8.20
2010,01,19,01,02,8.20
2010,01,19,01,03,8.20
2010,01,19,01,04,8.20
2010,01,19,01,05,8.20
2010,01,19,01,06,8.20
2010,01,19,01,07,8.30
2010,01,19,01,08,8.30
2010,01,19,01,09,8.30
2010,01,19,01,10,8.30
2010,01,19,01,11,8.30
2010,01,19,01,12,8.30
2010,01,19,01,13,8.30
2010,01,19,01,14,8.30
2010,01,19,01,15,8.30
2010,01,19,01,16,8.30
2010,01,19,01,17,8.30
2010,01,19,01,18,8.30
2010,01,19,01,19,8.30
2010,01,19,01,20,8.30
2010,01,19,01,21,8.30
2010,01,19,01,22,8.30
2010,01,19,01,23,8.30
2010,01,19,01,24,8.30
2010,01,19,01,25,8.30
2010,01,19,01,26,8.30
2010,01,19,01,27,8.30
2010,01,19,01,28,8.30
2010,01,19,01,29,8.30
2010,01,19,01,30,8.30
2010,01,19,01,31,8.30
2010,01,19,01,32,8.30
2010,01,19,01,33,8.30
2010,01,19,01,34,8.30
2010,01,19,01,35,8.30
2010,01,19,01,36,8.30
2010,01,19,01,37,8.30
2010,01,19,01,38,8.30
2010,01,19,01,39,8.30
2010,01,19,01,40,8.30
2010,01,19,01,41,8.30
2010,01,19,01,42,8.40
2010,01,19,01,43,8.40
2010,01,19,01,44,8.40
2010,01,19,01,45,8.40
2010,01,19,01,46,8.40
2010,01,19,01,47,8.40
2010,01,19,01,48,8.40
2010,01,19,01,49,8.40
2010,01,19,01,50,8.30
2010,01,19,01,51,8.30
2010,01,19,01,52,8.30
2010,01,19,01,53,8.30
2010,01,19,01,54,8.30
2010,01,19,01,55,8.30
2010,01,19,01,56,8.30
2010,01,19,01,57,8.30
2010,01,19,01,58,8.30
2010,01,19,01,59,8.30
2010,01,19,02,00,8.30
2010,01,19,02,01,8.20
2010,01,19,02,02,8.20
2010,01,19,02,03,8.20
2010,01,19,02,04,8.20
2010,01,19,02,05,8.30
2010,01,19,02,06,8.30
2010,01,19,02,07,8.30
2010,01,19,02,08,8.20
2010,01,19,02,09,8.20
2010,01,19,02,10,8.30
2010,01,19,02,11,8.30
2010,01,19,02,12,8.30
2010,01,19,02,13,8.30
2010,01,19,02,14,8.30
2010,01,19,02,15,8.40
2010,01,19,02,16,8.40
2010,01,19,02,17,8.40
2010,01,19,02,18,8.50
2010,01,19,02,19,8.50
2010,01,19,02,20,8.60
2010,01,19,02,21,8.60
2010,01,19,02,22,8.60
2010,01,19,02,23,8.60
2010,01,19,02,24,8.60
2010,01,19,02,25,8.60
2010,01,19,02,26,8.60
2010,01,19,02,27,8.60
2010,01,19,02,28,8.60
2010,01,19,02,29,8.60
2010,01,19,02,30,8.60
2010,01,19,02,31,8.60
2010,01,19,02,32,8.50
2010,01,19,02,33,8.50
2010,01,19,02,34,8.50
2010,01,19,02,35,8.50
2010,01,19,02,36,8.50
2010,01,19,02,37,8.40
2010,01,19,02,38,8.40
2010,01,19,02,39,8.40
2010,01,19,02,40,8.40
2010,01,19,02,41,8.40
2010,01,19,02,42,8.40
2010,01,19,02,43,8.30
2010,01,19,02,44,8.30
2010,01,19,02,45,8.30
2010,01,19,02,46,8.40
2010,01,19,02,47,8.40
2010,01,19,02,48,8.40
2010,01,19,02,49,8.40
2010,01,19,02,50,8.50
2010,01,19,02,51,8.50
2010,01,19,02,52,8.50
2010,01,19,02,53,8.60
2010,01,19,02,54,8.60
2010,01,19,02,55,8.60
2010,01,19,02,56,8.60
2010,01,19,02,57,8.60
2010,01,19,02,58,8.60
2010,01,19,02,59,8.50
2010,01,19,03,00,8.50
2010,01,19,03,01,8.40
2010,01,19,03,02,8.30
2010,01,19,03,03,8.30
2010,01,19,03,04,8.20
2010,01,19,03,05,8.20
2010,01,19,03,06,8.20
2010,01,19,03,07,8.10
2010,01,19,03,08,8.10
2010,01,19,03,09,8.10
2010,01,19,03,10,8.00
2010,01,19,03,11,8.00
2010,01,19,03,12,8.00
2010,01,19,03,13,7.90
2010,01,19,03,14,7.90
2010,01,19,03,15,7.90
2010,01,19,03,16,7.90
2010,01,19,03,17,7.80
2010,01,19,03,18,7.80
2010,01,19,03,19,7.80
2010,01,19,03,20,7.80
2010,01,19,03,21,7.80
2010,01,19,03,22,7.70
2010,01,19,03,23,7.70
2010,01,19,03,24,7.70
2010,01,19,03,25,7.60
2010,01,19,03,26,7.60
2010,01,19,03,27,7.60
2010,01,19,03,28,7.60
2010,01,19,03,29,7.50
2010,01,19,03,30,7.50
2010,01,19,03,31,7.40
2010,01,19,03,32,7.40
2010,01,19,03,33,7.40
2010,01,19,03,34,7.40
2010,01,19,03,35,7.40
2010,01,19,03,36,7.40
2010,01,19,03,37,7.30
2010,01,19,03,38,7.30
2010,01,19,03,39,7.30
2010,01,19,03,40,7.30
2010,01,19,03,41,7.30
2010,01,19,03,42,7.30
2010,01,19,03,43,7.30
2010,01,19,03,44,7.30
2010,01,19,03,45,7.20
2010,01,19,03,46,7.20
2010,01,19,03,47,7.20
2010,01,19,03,48,7.20
2010,01,19,03,49,7.20
2010,01,19,03,50,7.10
2010,01,19,03,51,7.10
2010,01,19,03,52,7.10
2010,01,19,03,53,7.00
2010,01,19,03,54,7.00
2010,01,19,03,55,7.00
2010,01,19,03,56,7.00
2010,01,19,03,57,7.00
2010,01,19,03,58,7.00
2010,01,19,03,59,7.00
2010,01,19,04,00,7.00
2010,01,19,04,01,7.00
2010,01,19,04,02,7.00
2010,01,19,04,03,7.00
2010,01,19,04,04,7.10
2010,01,19,04,05,7.10
2010,01,19,04,06,7.20
2010,01,19,04,07,7.20
2010,01,19,04,08,7.30
2010,01,19,04,09,7.30
2010,01,19,04,10,7.30
2010,01,19,04,11,7.40
2010,01,19,04,12,7.40
2010,01,19,04,13,7.50
2010,01,19,04,14,7.50
2010,01,19,04,15,7.60
2010,01,19,04,16,7.60
2010,01,19,04,17,7.60
2010,01,19,04,18,7.70
2010,01,19,04,19,7.70
2010,01,19,04,20,7.70
2010,01,19,04,21,7.70
2010,01,19,04,22,7.70
2010,01,19,04,23,7.70
2010,01,19,04,24,7.70
2010,01,19,04,25,7.70
2010,01,19,04,26,7.70
2010,01,19,04,27,7.70
2010,01,19,04,28,7.70
2010,01,19,04,29,7.70
2010,01,19,04,30,7.70
2010,01,19,04,31,7.70
2010,01,19,04,32,7.70
2010,01,19,04,33,7.70
2010,01,19,04,34,7.70
2010,01,19,04,35,7.70
2010,01,19,04,36,7.70
2010,01,19,04,37,7.70
2010,01,19,04,38,7.70
2010,01,19,04,39,7.70
2010,01,19,04,40,7.70
2010,01,19,04,41,7.80
2010,01,19,04,42,7.80
2010,01,19,04,43,7.80
2010,01,19,04,44,7.80
2010,01,19,04,45,7.80
2010,01,19,04,46,7.80
2010,01,19,04,47,7.80
2010,01,19,04,48,7.80
2010,01,19,04,49,7.80
2010,01,19,04,50,7.80
2010,01,19,04,51,7.80
2010,01,19,04,52,7.80
2010,01,19,04,53,7.80
2010,01,19,04,54,7.80
2010,01,19,04,55,7.80
2010,01,19,04,56,7.80
2010,01,19,04,57,7.80
2010,01,19,04,58,7.80
2010,01,19,04,59,7.80
2010,01,19,05,00,7.80
2010,01,19,05,01,7.80
2010,01,19,05,02,7.70
2010,01,19,05,03,7.70
2010,01,19,05,04,7.70
2010,01,19,05,05,7.70
2010,01,19,05,06,7.70
2010,01,19,05,07,7.70
2010,01,19,05,08,7.70
2010,01,19,05,09,7.80
2010,01,19,05,10,7.80
2010,01,19,05,11,7.70
2010,01,19,05,12,7.70
2010,01,19,05,13,7.70
2010,01,19,05,14,7.60
2010,01,19,05,15,7.60
2010,01,19,05,16,7.50
2010,01,19,05,17,7.50
2010,01,19,05,18,7.40
2010,01,19,05,19,7.30
2010,01,19,05,20,7.30
2010,01,19,05,21,7.30
2010,01,19,05,22,7.20
2010,01,19,05,23,7.20
2010,01,19,05,24,7.20
2010,01,19,05,25,7.20
2010,01,19,05,26,7.10
2010,01,19,05,27,7.10
2010,01,19,05,28,7.00
2010,01,19,05,29,6.90
2010,01,19,05,30,6.90
2010,01,19,05,31,6.80
2010,01,19,05,32,6.80
2010,01,19,05,33,6.80
2010,01,19,05,34,6.70
2010,01,19,05,35,6.70
2010,01,19,05,36,6.70
2010,01,19,05,37,6.70
2010,01,19,05,38,6.60
2010,01,19,05,39,6.60
2010,01,19,05,40,6.60
2010,01,19,05,41,6.60
2010,01,19,05,42,6.50
2010,01,19,05,43,6.50
2010,01,19,05,44,6.50
2010,01,19,05,45,6.50
2010,01,19,05,46,6.50
2010,01,19,05,47,6.50
2010,01,19,05,48,6.50
2010,01,19,05,49,6.50
2010,01,19,05,50,6.50
2010,01,19,05,51,6.40
2010,01,19,05,52,6.40
2010,01,19,05,53,6.40
2010,01,19,05,54,6.40
2010,01,19,05,55,6.40
2010,01,19,05,56,6.40
2010,01,19,05,57,6.50
2010,01,19,05,58,6.50
2010,01,19,05,59,6.60
2010,01,19,06,00,6.60
2010,01,19,06,01,6.70
2010,01,19,06,02,6.80
2010,01,19,06,03,6.90
2010,01,19,06,04,7.00
2010,01,19,06,05,7.20
2010,01,19,06,06,7.40
2010,01,19,06,07,7.70
2010,01,19,06,08,8.00
2010,01,19,06,09,8.20
2010,01,19,06,10,8.40
2010,01,19,06,11,8.60
2010,01,19,06,12,8.80
2010,01,19,06,13,8.90
2010,01,19,06,14,9.10
2010,01,19,06,15,9.20
2010,01,19,06,16,9.30
2010,01,19,06,17,9.30
2010,01,19,06,18,9.40
2010,01,19,06,19,9.50
2010,01,19,06,20,9.50
2010,01,19,06,21,9.50
2010,01,19,06,22,9.50
2010,01,19,06,23,9.60
2010,01,19,06,24,9.60
2010,01,19,06,25,9.60
2010,01,19,06,26,9.60
2010,01,19,06,27,9.70
2010,01,19,06,28,9.70
2010,01,19,06,29,9.80
2010,01,19,06,30,9.80
2010,01,19,06,31,9.90
2010,01,19,06,32,10.00
2010,01,19,06,33,10.00
2010,01,19,06,34,10.10
2010,01,19,06,35,10.10
2010,01,19,06,36,10.10
2010,01,19,06,37,10.10
2010,01,19,06,38,10.10
2010,01,19,06,39,10.10
2010,01,19,06,40,10.10
2010,01,19,06,41,10.10
2010,01,19,06,42,10.10
2010,01,19,06,43,10.10
2010,01,19,06,44,10.10
2010,01,19,06,45,10.00
2010,01,19,06,46,10.00
2010,01,19,06,47,10.00
2010,01,19,06,48,9.90
2010,01,19,06,49,9.90
2010,01,19,06,50,9.90
2010,01,19,06,51,9.90
2010,01,19,06,52,9.90
2010,01,19,06,53,9.90
2010,01,19,06,54,9.80
2010,01,19,06,55,9.80
2010,01,19,06,56,9.80
2010,01,19,06,57,9.70
2010,01,19,06,58,9.70
2010,01,19,06,59,9.60
2010,01,19,07,00,9.50
2010,01,19,07,01,9.50
2010,01,19,07,02,9.40
2010,01,19,07,03,9.30
2010,01,19,07,04,9.30
2010,01,19,07,05,9.20
2010,01,19,07,06,9.20
2010,01,19,07,07,9.10
2010,01,19,07,08,9.10
2010,01,19,07,09,9.00
2010,01,19,07,10,9.00
2010,01,19,07,11,8.90
2010,01,19,07,12,8.90
2010,01,19,07,13,8.90
2010,01,19,07,14,8.80
2010,01,19,07,15,8.80
2010,01,19,07,16,8.80
2010,01,19,07,17,8.70
2010,01,19,07,18,8.70
2010,01,19,07,19,8.80
2010,01,19,07,20,8.90
2010,01,19,07,21,9.00
2010,01,19,07,22,9.10
2010,01,19,07,23,9.10
2010,01,19,07,24,9.20
2010,01,19,07,25,9.20
2010,01,19,07,26,9.20
2010,01,19,07,27,9.20
2010,01,19,07,28,9.20
2010,01,19,07,29,9.30
2010,01,19,07,30,9.30
2010,01,19,07,31,9.30
2010,01,19,07,32,9.30
2010,01,19,07,33,9.30
2010,01,19,07,34,9.20
2010,01,19,07,35,9.20
2010,01,19,07,36,9.20
2010,01,19,07,37,9.20
2010,01,19,07,38,9.20
2010,01,19,07,39,9.20
2010,01,19,07,40,9.20
2010,01,19,07,41,9.10
2010,01,19,07,42,9.10
2010,01,19,07,43,9.10
2010,01,19,07,44,9.10
2010,01,19,07,45,9.10
2010,01,19,07,46,9.10
2010,01,19,07,47,9.10
2010,01,19,07,48,9.10
2010,01,19,07,49,9.10
2010,01,19,07,50,9.10
2010,01,19,07,51,9.10
2010,01,19,07,52,9.10
2010,01,19,07,53,9.10
2010,01,19,07,54,9.10
2010,01,19,07,55,9.20
2010,01,19,07,56,9.30
2010,01,19,07,57,9.30
2010,01,19,07,58,9.30
2010,01,19,07,59,9.30
2010,01,19,08,00,9.30
2010,01,19,08,01,9.40
2010,01,19,08,02,9.40
2010,01,19,08,03,9.40
2010,01,19,08,04,9.40
2010,01,19,08,05,9.50
2010,01,19,08,06,9.50
2010,01,19,08,07,9.50
2010,01,19,08,08,9.50
2010,01,19,08,09,9.60
2010,01,19,08,10,9.60
2010,01,19,08,11,9.60
2010,01,19,08,12,9.60
2010,01,19,08,13,9.60
2010,01,19,08,14,9.70
2010,01,19,08,15,9.70
2010,01,19,08,16,9.70
2010,01,19,08,17,9.70
2010,01,19,08,18,9.80
2010,01,19,08,19,9.80
2010,01,19,08,20,9.80
2010,01,19,08,21,9.80
2010,01,19,08,22,9.90
2010,01,19,08,23,9.90
2010,01,19,08,24,9.90
2010,01,19,08,25,9.80
2010,01,19,08,26,9.80
2010,01,19,08,27,9.80
2010,01,19,08,28,9.80
2010,01,19,08,29,9.90
2010,01,19,08,30,9.90
2010,01,19,08,31,9.90
2010,01,19,08,32,10.00
2010,01,19,08,33,10.00
2010,01,19,08,34,10.00
2010,01,19,08,35,10.10
2010,01,19,08,36,10.10
2010,01,19,08,37,10.10
2010,01,19,08,38,10.20
2010,01,19,08,39,10.20
2010,01,19,08,40,10.30
2010,01,19,08,41,10.30
2010,01,19,08,42,10.30
2010,01,19,08,43,10.30
2010,01,19,08,44,10.40
2010,01,19,08,45,10.40
2010,01,19,08,46,10.50
2010,01,19,08,47,10.50
2010,01,19,08,48,10.50
2010,01,19,08,49,10.60
2010,01,19,08,50,10.60
2010,01,19,08,51,10.50
2010,01,19,08,52,10.50
2010,01,19,08,53,10.40
2010,01,19,08,54,10.40
2010,01,19,08,55,10.30
2010,01,19,08,56,10.30
2010,01,19,08,57,10.30
2010,01,19,08,58,10.30
2010,01,19,08,59,10.30
2010,01,19,09,00,10.30
2010,01,19,09,01,10.30
2010,01,19,09,02,10.30
2010,01,19,09,03,10.40
2010,01,19,09,04,10.40
2010,01,19,09,05,10.40
2010,01,19,09,06,10.40
2010,01,19,09,07,10.40
2010,01,19,09,08,10.40
2010,01,19,09,09,10.40
2010,01,19,09,10,10.40
2010,01,19,09,11,10.40
2010,01,19,09,12,10.40
2010,01,19,09,13,10.40
2010,01,19,09,14,10.50
2010,01,19,09,15,10.50
2010,01,19,09,16,10.50
2010,01,19,09,17,10.50
2010,01,19,09,18,10.50
2010,01,19,09,19,10.50
2010,01,19,09,20,10.50
2010,01,19,09,21,10.50
2010,01,19,09,22,10.50
2010,01,19,09,23,10.50
2010,01,19,09,24,10.40
2010,01,19,09,25,10.40
2010,01,19,09,26,10.40
2010,01,19,09,27,10.40
2010,01,19,09,28,10.40
2010,01,19,09,29,10.40
2010,01,19,09,30,10.40
2010,01,19,09,31,10.30
2010,01,19,09,32,10.30
2010,01,19,09,33,10.30
2010,01,19,09,34,10.30
2010,01,19,09,35,10.30
2010,01,19,09,36,10.30
2010,01,19,09,37,10.20
2010,01,19,09,38,10.20
2010,01,19,09,39,10.20
2010,01,19,09,40,10.20
2010,01,19,09,41,10.30
2010,01,19,09,42,10.30
2010,01,19,09,43,10.30
2010,01,19,09,44,10.30
2010,01,19,09,45,10.30
2010,01,19,09,46,10.30
2010,01,19,09,47,10.30
2010,01,19,09,48,10.30
2010,01,19,09,49,10.30
2010,01,19,09,50,10.20
2010,01,19,09,51,10.20
2010,01,19,09,52,10.10
2010,01,19,09,53,10.10
2010,01,19,09,54,10.00
2010,01,19,09,55,10.00
2010,01,19,09,56,9.90
2010,01,19,09,57,9.90
2010,01,19,09,58,9.90
2010,01,19,09,59,9.90
2010,01,19,10,00,9.90
2010,01,19,10,01,9.90
2010,01,19,10,02,9.90
2010,01,19,10,03,9.90
2010,01,19,10,04,9.90
2010,01,19,10,05,9.90
2010,01,19,10,06,9.90
2010,01,19,10,07,9.90
2010,01,19,10,08,9.90
2010,01,19,10,09,9.90
2010,01,19,10,10,9.90
2010,01,19,10,11,9.90
2010,01,19,10,12,9.90
2010,01,19,10,13,9.90
2010,01,19,10,14,9.90
2010,01,19,10,15,9.90
2010,01,19,10,16,9.90
2010,01,19,10,17,9.90
2010,01,19,10,18,9.90
2010,01,19,10,19,9.90
2010,01,19,10,20,9.90
2010,01,19,10,21,9.90
2010,01,19,10,22,9.90
2010,01,19,10,23,9.90
2010,01,19,10,24,9.90
2010,01,19,10,25,9.90
2010,01,19,10,26,9.90
2010,01,19,10,27,10.00
2010,01,19,10,28,10.00
2010,01,19,10,29,10.00
2010,01,19,10,30,10.10
2010,01,19,10,31,10.10
2010,01,19,10,32,10.10
2010,01,19,10,33,10.20
2010,01,19,10,34,10.20
2010,01,19,10,35,10.20
2010,01,19,10,36,10.30
2010,01,19,10,37,10.30
2010,01,19,10,38,10.30
2010,01,19,10,39,10.40
2010,01,19,10,40,10.40
2010,01,19,10,41,10.50
2010,01,19,10,42,10.50
2010,01,19,10,43,10.60
2010,01,19,10,44,10.60
2010,01,19,10,45,10.60
2010,01,19,10,46,10.60
2010,01,19,10,47,10.70
2010,01,19,10,48,10.70
2010,01,19,10,49,10.70
2010,01,19,10,50,10.70
2010,01,19,10,51,10.80
2010,01,19,10,52,10.80
2010,01,19,10,53,10.80
2010,01,19,10,54,10.80
2010,01,19,10,55,10.80
2010,01,19,10,56,10.80
2010,01,19,10,57,10.90
2010,01,19,10,58,10.80
2010,01,19,10,59,10.90
2010,01,19,11,00,10.90
2010,01,19,11,01,10.90
2010,01,19,11,02,10.90
2010,01,19,11,03,10.90
2010,01,19,11,04,10.90
2010,01,19,11,05,10.90
2010,01,19,11,06,10.80
2010,01,19,11,07,10.80
2010,01,19,11,08,10.80
2010,01,19,11,09,10.80
2010,01,19,11,10,10.80
2010,01,19,11,11,10.80
2010,01,19,11,12,10.80
2010,01,19,11,13,10.80
2010,01,19,11,14,10.80
2010,01,19,11,15,10.80
2010,01,19,11,16,10.80
2010,01,19,11,17,10.80
2010,01,19,11,18,10.80
2010,01,19,11,19,10.80
2010,01,19,11,20,10.80
2010,01,19,11,21,10.80
2010,01,19,11,22,10.80
2010,01,19,11,23,10.80
2010,01,19,11,24,10.80
2010,01,19,11,25,10.80
2010,01,19,11,26,10.80
2010,01,19,11,27,10.80
2010,01,19,11,28,10.80
2010,01,19,11,29,10.80
2010,01,19,11,30,10.80
2010,01,19,11,31,10.80
2010,01,19,11,32,10.80
2010,01,19,11,33,10.80
2010,01,19,11,34,10.90
2010,01,19,11,35,10.90
2010,01,19,11,36,10.90
2010,01,19,11,37,11.00
2010,01,19,11,38,11.00
2010,01,19,11,39,11.00
2010,01,19,11,40,11.00
2010,01,19,11,41,11.10
2010,01,19,11,42,11.10
2010,01,19,11,43,11.10
2010,01,19,11,44,11.20
2010,01,19,11,45,11.30
2010,01,19,11,46,11.30
2010,01,19,11,47,11.40
2010,01,19,11,48,11.40
2010,01,19,11,49,11.50
2010,01,19,11,50,11.50
2010,01,19,11,51,11.50
2010,01,19,11,52,11.50
2010,01,19,11,53,11.50
2010,01,19,11,54,11.50
2010,01,19,11,55,11.50
2010,01,19,11,56,11.50
2010,01,19,11,57,11.50
2010,01,19,11,58,11.50
2010,01,19,11,59,11.50
2010,01,19,12,00,11.50
2010,01,19,12,01,11.50
2010,01,19,12,02,11.50
2010,01,19,12,03,11.50
2010,01,19,12,04,11.50
2010,01,19,12,05,11.50
2010,01,19,12,06,11.50
2010,01,19,12,07,11.50
2010,01,19,12,08,11.50
2010,01,19,12,09,11.50
2010,01,19,12,10,11.50
2010,01,19,12,11,11.50
2010,01,19,12,12,11.50
2010,01,19,12,13,11.50
2010,01,19,12,14,11.50
2010,01,19,12,15,11.50
2010,01,19,12,16,11.50
2010,01,19,12,17,11.50
2010,01,19,12,18,11.50
2010,01,19,12,19,11.50
2010,01,19,12,20,11.50
2010,01,19,12,21,11.50
2010,01,19,12,22,11.50
2010,01,19,12,23,11.50
2010,01,19,12,24,11.50
2010,01,19,12,25,11.50
2010,01,19,12,26,11.60
2010,01,19,12,27,11.60
2010,01,19,12,28,11.60
2010,01,19,12,29,11.60
2010,01,19,12,30,11.50
2010,01,19,12,31,11.50
2010,01,19,12,32,11.50
2010,01,19,12,33,11.60
2010,01,19,12,34,11.60
2010,01,19,12,35,11.60
2010,01,19,12,36,11.60
2010,01,19,12,37,11.60
2010,01,19,12,38,11.50
2010,01,19,12,39,11.50
2010,01,19,12,40,11.50
2010,01,19,12,41,11.50
2010,01,19,12,42,11.50
2010,01,19,12,43,11.50
2010,01,19,12,44,11.50
2010,01,19,12,45,11.50
2010,01,19,12,46,11.50
2010,01,19,12,47,11.50
2010,01,19,12,48,11.50
2010,01,19,12,49,11.50
2010,01,19,12,50,11.40
2010,01,19,12,51,11.40
2010,01,19,12,52,11.40
2010,01,19,12,53,11.40
2010,01,19,12,54,11.40
2010,01,19,12,55,11.40
2010,01,19,12,56,11.40
2010,01,19,12,57,11.40
2010,01,19,12,58,11.40
2010,01,19,12,59,11.40
2010,01,19,13,00,11.40
2010,01,19,13,01,11.40
2010,01,19,13,02,11.40
2010,01,19,13,03,11.40
2010,01,19,13,04,11.40
2010,01,19,13,05,11.40
2010,01,19,13,06,11.40
2010,01,19,13,07,11.40
2010,01,19,13,08,11.40
2010,01,19,13,09,11.40
2010,01,19,13,10,11.30
2010,01,19,13,11,11.30
2010,01,19,13,12,11.30
2010,01,19,13,13,11.20
2010,01,19,13,14,11.20
2010,01,19,13,15,11.20
2010,01,19,13,16,11.20
2010,01,19,13,17,11.10
2010,01,19,13,18,11.10
2010,01,19,13,19,11.10
2010,01,19,13,20,11.10
2010,01,19,13,21,11.00
2010,01,19,13,22,11.00
2010,01,19,13,23,11.00
2010,01,19,13,24,10.90
2010,01,19,13,25,10.90
2010,01,19,13,26,10.90
2010,01,19,13,27,10.90
2010,01,19,13,28,10.80
2010,01,19,13,29,10.80
2010,01,19,13,30,10.80
2010,01,19,13,31,10.80
2010,01,19,13,32,10.80
2010,01,19,13,33,10.80
2010,01,19,13,34,10.80
2010,01,19,13,35,10.70
2010,01,19,13,36,10.70
2010,01,19,13,37,10.70
2010,01,19,13,38,10.70
2010,01,19,13,39,10.70
2010,01,19,13,40,10.70
2010,01,19,13,41,10.70
2010,01,19,13,42,10.70
2010,01,19,13,43,10.70
2010,01,19,13,44,10.70
2010,01,19,13,45,10.70
2010,01,19,13,46,10.70
2010,01,19,13,47,10.70
2010,01,19,13,48,10.70
2010,01,19,13,49,10.70
2010,01,19,13,50,10.70
2010,01,19,13,51,10.70
2010,01,19,13,52,10.70
2010,01,19,13,53,10.70
2010,01,19,13,54,10.70
2010,01,19,13,55,10.70
2010,01,19,13,56,10.70
2010,01,19,13,57,10.70
2010,01,19,13,58,10.70
2010,01,19,13,59,10.70
2010,01,19,14,00,10.70
2010,01,19,14,01,10.70
2010,01,19,14,02,10.70
2010,01,19,14,03,10.70
2010,01,19,14,04,10.70
2010,01,19,14,05,10.70
2010,01,19,14,06,10.70
2010,01,19,14,07,10.70
2010,01,19,14,08,10.70
2010,01,19,14,09,10.70
2010,01,19,14,10,10.70
2010,01,19,14,11,10.80
2010,01,19,14,12,10.80
2010,01,19,14,13,10.80
2010,01,19,14,14,10.80
2010,01,19,14,15,10.80
2010,01,19,14,16,10.80
2010,01,19,14,17,10.80
2010,01,19,14,18,10.80
2010,01,19,14,19,10.80
2010,01,19,14,20,10.80
2010,01,19,14,21,10.80
2010,01,19,14,22,10.80
2010,01,19,14,23,10.80
2010,01,19,14,24,10.80
2010,01,19,14,25,10.80
2010,01,19,14,26,10.80
2010,01,19,14,27,10.80
2010,01,19,14,28,10.80
2010,01,19,14,29,10.80
2010,01,19,14,30,10.80
2010,01,19,14,31,10.80
2010,01,19,14,32,10.70
2010,01,19,14,33,10.70
2010,01,19,14,34,10.70
2010,01,19,14,35,10.70
2010,01,19,14,36,10.70
2010,01,19,14,37,10.70
2010,01,19,14,38,10.70
2010,01,19,14,39,10.70
2010,01,19,14,40,10.70
2010,01,19,14,41,10.70
2010,01,19,14,42,10.70
2010,01,19,14,43,10.70
2010,01,19,14,44,10.70
2010,01,19,14,45,10.70
2010,01,19,14,46,10.70
2010,01,19,14,47,10.70
2010,01,19,14,48,10.70
2010,01,19,14,49,10.70
2010,01,19,14,50,10.70
2010,01,19,14,51,10.70
2010,01,19,14,52,10.60
2010,01,19,14,53,10.60
2010,01,19,14,54,10.60
2010,01,19,14,55,10.60
2010,01,19,14,56,10.60
2010,01,19,14,57,10.60
2010,01,19,14,58,10.60
2010,01,19,14,59,10.60
2010,01,19,15,00,10.50
2010,01,19,15,01,10.50
2010,01,19,15,02,10.50
2010,01,19,15,03,10.50
2010,01,19,15,04,10.50
2010,01,19,15,05,10.50
2010,01,19,15,06,10.50
2010,01,19,15,07,10.50
2010,01,19,15,08,10.50
2010,01,19,15,09,10.50
2010,01,19,15,10,10.50
2010,01,19,15,11,10.40
2010,01,19,15,12,10.50
2010,01,19,15,13,10.40
2010,01,19,15,14,10.40
2010,01,19,15,15,10.40
2010,01,19,15,16,10.40
2010,01,19,15,17,10.40
2010,01,19,15,18,10.40
2010,01,19,15,19,10.40
2010,01,19,15,20,10.40
2010,01,19,15,21,10.40
2010,01,19,15,22,10.40
2010,01,19,15,23,10.40
2010,01,19,15,24,10.40
2010,01,19,15,25,10.40
2010,01,19,15,26,10.40
2010,01,19,15,27,10.40
2010,01,19,15,28,10.40
2010,01,19,15,29,10.40
2010,01,19,15,30,10.40
2010,01,19,15,31,10.40
2010,01,19,15,32,10.40
2010,01,19,15,33,10.40
2010,01,19,15,34,10.40
2010,01,19,15,35,10.40
2010,01,19,15,36,10.40
2010,01,19,15,37,10.40
2010,01,19,15,38,10.40
2010,01,19,15,39,10.40
2010,01,19,15,40,10.40
2010,01,19,15,41,10.40
2010,01,19,15,42,10.40
2010,01,19,15,43,10.30
2010,01,19,15,44,10.30
2010,01,19,15,45,10.30
2010,01,19,15,46,10.30
2010,01,19,15,47,10.30
2010,01,19,15,48,10.30
2010,01,19,15,49,10.30
2010,01,19,15,50,10.30
2010,01,19,15,51,10.30
2010,01,19,15,52,10.30
2010,01,19,15,53,10.20
2010,01,19,15,54,10.20
2010,01,19,15,55,10.20
2010,01,19,15,56,10.20
2010,01,19,15,57,10.20
2010,01,19,15,58,10.20
2010,01,19,15,59,10.20
2010,01,19,16,00,10.20
2010,01,19,16,01,10.30
2010,01,19,16,02,10.30
2010,01,19,16,03,10.30
2010,01,19,16,04,10.30
2010,01,19,16,05,10.30
2010,01,19,16,06,10.30
2010,01,19,16,07,10.30
2010,01,19,16,08,10.30
2010,01,19,16,09,10.30
2010,01,19,16,10,10.30
2010,01,19,16,11,10.30
2010,01,19,16,12,10.30
2010,01,19,16,13,10.30
2010,01,19,16,14,10.30
2010,01,19,16,15,10.30
2010,01,19,16,16,10.30
2010,01,19,16,17,10.30
2010,01,19,16,18,10.30
2010,01,19,16,19,10.30
2010,01,19,16,20,10.30
2010,01,19,16,21,10.30
2010,01,19,16,22,10.30
2010,01,19,16,23,10.30
2010,01,19,16,24,10.30
2010,01,19,16,25,10.30
2010,01,19,16,26,10.30
2010,01,19,16,27,10.30
2010,01,19,16,28,10.30
2010,01,19,16,29,10.30
2010,01,19,16,30,10.30
2010,01,19,16,31,10.30
2010,01,19,16,32,10.20
2010,01,19,16,33,10.20
2010,01,19,16,34,10.20
2010,01,19,16,35,10.30
2010,01,19,16,36,10.30
2010,01,19,16,37,10.30
2010,01,19,16,38,10.30
2010,01,19,16,39,10.20
2010,01,19,16,40,10.30
2010,01,19,16,41,10.30
2010,01,19,16,42,10.30
2010,01,19,16,43,10.30
2010,01,19,16,44,10.20
2010,01,19,16,45,10.20
2010,01,19,16,46,10.20
2010,01,19,16,47,10.20
2010,01,19,16,48,10.20
2010,01,19,16,49,10.10
2010,01,19,16,50,10.10
2010,01,19,16,51,10.00
2010,01,19,16,52,10.00
2010,01,19,16,53,10.00
2010,01,19,16,54,9.90
2010,01,19,16,55,9.90
2010,01,19,16,56,9.90
2010,01,19,16,57,9.80
2010,01,19,16,58,9.80
2010,01,19,16,59,9.80
2010,01,19,17,00,9.80
2010,01,19,17,01,9.70
2010,01,19,17,02,9.70
2010,01,19,17,03,9.70
2010,01,19,17,04,9.70
2010,01,19,17,05,9.70
2010,01,19,17,06,9.60
2010,01,19,17,07,9.60
2010,01,19,17,08,9.60
2010,01,19,17,09,9.60
2010,01,19,17,10,9.50
2010,01,19,17,11,9.50
2010,01,19,17,12,9.40
2010,01,19,17,13,9.40
2010,01,19,17,14,9.40
2010,01,19,17,15,9.40
2010,01,19,17,16,9.30
2010,01,19,17,17,9.30
2010,01,19,17,18,9.30
2010,01,19,17,19,9.30
2010,01,19,17,20,9.30
2010,01,19,17,21,9.30
2010,01,19,17,22,9.30
2010,01,19,17,23,9.30
2010,01,19,17,24,9.30
2010,01,19,17,25,9.40
2010,01,19,17,26,9.40
2010,01,19,17,27,9.40
2010,01,19,17,28,9.40
2010,01,19,17,29,9.40
2010,01,19,17,30,9.40
2010,01,19,17,31,9.40
2010,01,19,17,32,9.30
2010,01,19,17,33,9.30
2010,01,19,17,34,9.30
2010,01,19,17,35,9.30
2010,01,19,17,36,9.30
2010,01,19,17,37,9.30
2010,01,19,17,38,9.30
2010,01,19,17,39,9.30
2010,01,19,17,40,9.30
2010,01,19,17,41,9.30
2010,01,19,17,42,9.30
2010,01,19,17,43,9.30
2010,01,19,17,44,9.30